NOAA 16 DEB

Satellite information

Favourite Embed

Satellite Type and Status

DEBRISIN ORBIT

Key statistics

Satellite NOAA 16 DEB at a glance.

Uptime

9055

Days in orbit

Revolutions

≈ 14.4

Per day

Orbit

SSO

Sun Synchronous Orbit

Inclination

98.8

Latest

Satellite identification and parameters

Extended collection of information and parameters for NOAA 16 DEB.

Object identification

Identified? True

Debris? True

Object name: NOAA 16 DEB

International designator: 2000-055DX

Object number (NORAD): 41218

Object ID (CCSDS): 41218

Country: UNITED STATES OF AMERICA (US)

Current information (Y/N): Y

RCS size: SMALL

Orbital parameters

Period: 100.094 minutes

Inclination: 98.7854 deg

SMA: 7141.098 km

Apoapsis: 791.643 km

Periapsis: 734.283 km

RAAN: 288.6157 deg

Eccentricy: 0.0040162

Argument of periapsis: 227.5093 deg

Mean anomaly: 132.2697 deg

Mean motion: 14.38650331 rev/day

Mean motion (dot): 0.00005879 rev/day2

B* drag term: 0.0019141 1/REarth

Two-line elements (TLE)

Creation date: July 6, 2025, 6:05 p.m.

Reference frame: TEME

Reference center: EARTH

Epoch: July 6, 2025, 3:05 a.m. UTC

TLE line 0: 0 NOAA 16 DEB

TLE line 1: 1 41218U 00055DX 25187.12887486 .00005879 00000-0 19141-2 0 9990

TLE line 2: 2 41218 98.7854 288.6157 0040162 227.5093 132.2697 14.38650331495425

Live tracking on map

Real-time ground track for satellite NOAA 16 DEB.

In-orbit conjunctions

A list of the most updated potential collisions computed for object NOAA 16 DEB.

Target Orbit TCA Probability of collision Miss distance Type
CZ-6A DEB LEO 2025-02-02 17:17:51 0.0001032871 413.0 (m) DEBRIS
CZ-6A DEB LEO 2024-11-30 23:50:32 0.0004022535 392.0 (m) DEBRIS
METEOR 2-7 DEB LEO 2024-11-11 23:54:13 0.0007847789 111.0 (m) DEBRIS
COSMOS 1275 DEB LEO 2024-09-28 01:11:52 0.0003488373 812.0 (m) DEBRIS

Associated space launch

The NOAA K, L and M POES satellites begin the fifth generation of improved environmental monitoring in support of NOAA missions. The instrument payload has significant improvements and additions/deletions. The instrument changes have effected the spacecraft subsystems and data formats.

NOAA 16 DEB was lifted into orbit during the mission ‘Titan II SLV | NOAA 16’, on board a Titan II SLV space rocket.

The launch took place on Sept. 21, 2000, 10:22 a.m. from Space Launch Complex 4W.

For more information about the launch, click the button.

Launch to space Titan II SLV | NOAA 16
Titan II SLV | NOAA 16

Agency: N/A

Status: Launch Successful

Launch date: Sept. 21, 2000, 10:22 a.m. UTC

Rocket: Titan II SLV

Launch pad: Space Launch Complex 4W

Location: Vandenberg SFB, CA, USA

...

Latest news about this satellite

There are no fresh news available about this satellite. Check back as we update our databases every day.


Newsletter sign-up

Weekly statistics, charts and insights to help you stay on top of the space industry.